TimePST,TemperatureF,Dew PointF,Humidity,Sea Level PressureIn,VisibilityMPH,Wind Direction,Wind SpeedMPH,Gust SpeedMPH,PrecipitationIn,Events,Conditions,WindDirDegrees,DateUTC
12:56 AM,48.0,32.0,54,29.93,10.0,WSW,10.4,-,N/A,,Clear,240,2013-02-09 08:56:00
1:56 AM,46.0,32.0,58,29.93,10.0,West,8.1,-,N/A,,Clear,260,2013-02-09 09:56:00
2:56 AM,43.0,30.9,62,29.93,10.0,WSW,6.9,-,N/A,,Clear,250,2013-02-09 10:56:00
3:56 AM,46.9,33.1,59,29.93,10.0,West,11.5,-,N/A,,Clear,260,2013-02-09 11:56:00
4:56 AM,46.9,32.0,56,29.94,10.0,WSW,12.7,-,N/A,,Clear,240,2013-02-09 12:56:00
5:56 AM,42.1,30.9,65,29.96,10.0,West,9.2,-,N/A,,Partly Cloudy,260,2013-02-09 13:56:00
6:56 AM,42.1,30.9,65,29.99,10.0,West,3.5,-,N/A,,Partly Cloudy,280,2013-02-09 14:56:00
7:56 AM,48.9,32.0,52,30.01,10.0,WSW,3.5,-,N/A,,Partly Cloudy,250,2013-02-09 15:56:00
8:56 AM,55.0,30.9,40,30.03,10.0,West,11.5,-,N/A,,Partly Cloudy,280,2013-02-09 16:56:00
9:56 AM,57.9,30.0,35,30.04,10.0,WSW,28.8,32.2,N/A,,Partly Cloudy,250,2013-02-09 17:56:00
10:56 AM,60.1,28.0,30,30.05,10.0,WSW,20.7,-,N/A,,Partly Cloudy,240,2013-02-09 18:56:00
11:56 AM,61.0,26.1,26,30.05,10.0,West,17.3,25.3,N/A,,Partly Cloudy,270,2013-02-09 19:56:00
12:56 PM,62.1,27.0,26,30.03,10.0,WNW,16.1,24.2,N/A,,Partly Cloudy,300,2013-02-09 20:56:00
1:56 PM,63.0,27.0,26,30.02,10.0,West,11.5,-,N/A,,Scattered Clouds,270,2013-02-09 21:56:00
2:56 PM,62.1,27.0,26,30.01,10.0,WSW,11.5,-,N/A,,Partly Cloudy,250,2013-02-09 22:56:00
3:56 PM,61.0,28.0,29,30.02,10.0,WNW,16.1,-,N/A,,Partly Cloudy,290,2013-02-09 23:56:00
4:56 PM,59.0,28.9,32,30.02,10.0,West,15.0,-,N/A,,Partly Cloudy,280,2013-02-10 00:56:00
5:56 PM,55.9,34.0,44,30.03,10.0,WSW,11.5,-,N/A,,Clear,240,2013-02-10 01:56:00
6:56 PM,54.0,33.1,45,30.05,10.0,WSW,11.5,-,N/A,,Clear,240,2013-02-10 02:56:00
7:56 PM,52.0,33.1,49,30.07,10.0,WSW,10.4,-,N/A,,Clear,250,2013-02-10 03:56:00
8:56 PM,50.0,32.0,50,30.08,10.0,SW,10.4,-,N/A,,Clear,220,2013-02-10 04:56:00
9:56 PM,48.9,32.0,52,30.09,10.0,WSW,9.2,-,N/A,,Clear,250,2013-02-10 05:56:00
10:56 PM,46.9,32.0,56,30.10,10.0,West,10.4,-,N/A,,Clear,260,2013-02-10 06:56:00
11:56 PM,50.0,32.0,50,30.11,10.0,WSW,16.1,-,N/A,,Clear,250,2013-02-10 07:56:00